Date String (YYYY-MM-DD hh:mm:ss) UTC,Instrument flags,Ambient pressure (hPa),Sample flow (lpm),Bypass flow (lpm),Sample temperature (°C),Ambient temperature (°C),ASC tube jacket temperature (°C),LED temperature (°C),Box temperature (°C),Sample RH (%),Span deviation,Mass concentration (μg/m³),Mass concentration (μg/m³),Mass concentration (μg/m³)
DateTimeUTC,F1_M11,P_M11,Q1_M11,Q2_M11,T1_M11,T2_M11,T3_M11,T4_M11,T5_M11,U1_M11,ZSPAN_M11,X0_M11,X2_M11,X1_M11
2021-10-09 22:00:00,,0821.4,5.00,0.00,29.5,28.6,00.0,38.7,31.3,13.6,0000.0,0010.06,0001.89,0000.89
2021-10-09 22:01:00,,0821.4,5.01,0.00,29.5,28.6,00.0,38.7,31.2,13.8,0000.0,0009.30,0001.81,0000.88
2021-10-09 22:02:00,,0821.4,5.00,0.00,29.5,28.5,00.0,38.7,31.1,13.9,0000.0,0007.96,0001.70,0000.86
2021-10-09 22:03:00,,0821.4,5.00,0.00,29.5,28.5,00.0,38.7,31.1,14.0,0000.0,0007.02,0001.60,0000.86
2021-10-09 22:04:00,,0821.4,4.99,0.00,29.5,28.6,00.0,38.7,31.1,13.9,0000.0,0005.70,0001.48,0000.86
2021-10-09 22:05:00,,0821.4,5.00,0.00,29.4,28.5,00.0,38.7,31.1,14.3,0000.0,0004.61,0001.41,0000.84
2021-10-09 22:06:00,,0821.4,4.99,0.00,29.4,28.5,00.0,38.7,31.1,14.4,0000.0,0004.55,0001.40,0000.84
2021-10-09 22:07:00,,0821.4,5.01,0.00,29.5,28.5,00.0,38.7,31.1,14.4,0000.0,0004.97,0001.38,0000.83
2021-10-09 22:08:00,,0821.3,5.01,0.00,29.4,28.5,00.0,38.7,31.1,14.6,0000.0,0005.73,0001.38,0000.82
2021-10-09 22:09:00,,0821.4,4.99,0.00,29.4,28.5,00.0,38.7,31.0,14.7,0000.0,0004.27,0001.35,0000.83
2021-10-09 22:10:00,,0821.3,5.00,0.00,29.4,28.4,00.0,38.6,31.0,14.8,0000.0,0004.03,0001.36,0000.83
2021-10-09 22:11:00,,0821.3,5.00,0.00,29.4,28.5,00.0,38.6,31.1,14.7,0000.0,0003.97,0001.31,0000.83
2021-10-09 22:12:00,,0821.3,4.99,0.00,29.4,28.5,00.0,38.6,31.1,14.6,0000.0,0003.99,0001.32,0000.83
2021-10-09 22:13:00,,0821.2,5.00,0.00,29.4,28.4,00.0,38.6,31.1,14.6,0000.0,0003.88,0001.31,0000.84
2021-10-09 22:14:00,,0821.3,5.00,0.00,29.4,28.5,00.0,38.6,31.1,14.7,0000.0,0003.89,0001.36,0000.84
2021-10-09 22:15:00,,0821.3,5.01,0.00,29.4,28.5,00.0,38.6,31.0,14.8,0000.0,0003.69,0001.39,0000.85
2021-10-09 22:16:00,,0821.2,5.00,0.00,29.4,28.5,00.0,38.6,31.0,14.7,0000.0,0003.57,0001.38,0000.86
2021-10-09 22:17:00,,0821.2,4.98,0.00,29.4,28.5,00.0,38.6,31.0,14.9,0000.0,0003.55,0001.37,0000.85
2021-10-09 22:18:00,,0821.1,5.01,0.00,29.3,28.5,00.0,38.6,31.0,15.0,0000.0,0003.15,0001.32,0000.85
2021-10-09 22:19:00,,0821.1,5.00,0.00,29.3,28.5,00.0,38.6,31.0,15.0,0000.0,0002.25,0001.31,0000.86
2021-10-09 22:20:00,,0821.0,5.00,0.00,29.3,28.5,00.0,38.6,31.0,14.9,0000.0,0002.28,0001.31,0000.86
2021-10-09 22:21:00,,0821.0,4.98,0.00,29.3,28.5,00.0,38.6,31.0,14.5,0000.0,0002.44,0001.35,0000.86
2021-10-09 22:22:00,,0820.9,5.00,0.00,29.4,28.5,00.0,38.6,31.1,14.2,0000.0,0002.32,0001.35,0000.87
2021-10-09 22:23:00,,0820.9,5.00,0.00,29.4,28.5,00.0,38.6,31.1,13.9,0000.0,0002.28,0001.35,0000.88
2021-10-09 22:24:00,,0820.9,5.01,0.00,29.4,28.5,00.0,38.6,31.1,13.7,0000.0,0002.36,0001.38,0000.88
2021-10-09 22:25:00,,0820.9,5.00,0.00,29.4,28.5,00.0,38.6,31.1,13.8,0000.0,0002.39,0001.37,0000.89
2021-10-09 22:26:00,,0820.9,5.00,0.00,29.4,28.5,00.0,38.6,31.2,13.8,0000.0,0002.42,0001.35,0000.89
2021-10-09 22:27:00,,0820.9,5.00,0.00,29.4,28.5,00.0,38.6,31.1,13.2,0000.0,0003.46,0001.34,0000.89
2021-10-09 22:28:00,,0820.9,5.01,0.00,29.4,28.5,00.0,38.6,31.1,13.3,0000.0,0003.59,0001.39,0000.90
2021-10-09 22:29:00,,0820.8,4.99,0.00,29.4,28.5,00.0,38.5,31.1,13.3,0000.0,0003.80,0001.44,0000.92
2021-10-09 22:30:00,,0820.8,5.01,0.00,29.4,28.6,00.0,38.5,31.1,13.4,0000.0,0004.01,0001.48,0000.92
2021-10-09 22:31:00,,0820.8,5.00,0.00,29.4,28.5,00.0,38.5,31.1,13.3,0000.0,0003.94,0001.48,0000.94
2021-10-09 22:32:00,,0820.7,5.00,0.00,29.4,28.5,00.0,38.5,31.2,13.4,0000.0,0003.75,0001.44,0000.94
2021-10-09 22:33:00,,0820.7,4.99,0.00,29.4,28.6,00.0,38.5,31.2,13.4,0000.0,0004.33,0001.51,0000.95
2021-10-09 22:34:00,,0820.6,5.00,0.00,29.4,28.5,00.0,38.5,31.2,13.4,0000.0,0004.47,0001.50,0000.95
2021-10-09 22:35:00,,0820.7,5.00,0.00,29.4,28.5,00.0,38.5,31.1,13.4,0000.0,0004.35,0001.46,0000.95
2021-10-09 22:36:00,,0820.6,4.99,0.00,29.4,28.6,00.0,38.5,31.1,13.5,0000.0,0004.25,0001.43,0000.95
2021-10-09 22:37:00,,0820.6,5.02,0.00,29.4,28.6,00.0,38.5,31.1,13.4,0000.0,0004.19,0001.42,0000.94
2021-10-09 22:38:00,,0820.7,5.00,0.00,29.4,28.6,00.0,38.5,31.2,13.5,0000.0,0003.35,0001.47,0000.94
2021-10-09 22:39:00,,0820.6,5.00,0.00,29.4,28.6,00.0,38.5,31.2,13.5,0000.0,0003.12,0001.44,0000.94
2021-10-09 22:40:00,,0820.7,5.00,0.00,29.4,28.6,00.0,38.5,31.1,13.3,0000.0,0003.01,0001.42,0000.94
2021-10-09 22:41:00,,0820.7,5.01,0.00,29.4,28.6,00.0,38.5,31.1,13.4,0000.0,0002.74,0001.37,0000.94
2021-10-09 22:42:00,,0820.6,4.99,0.00,29.4,28.6,00.0,38.5,31.1,13.4,0000.0,0002.74,0001.35,0000.94
2021-10-09 22:43:00,,0820.6,5.00,0.00,29.4,28.6,00.0,38.5,31.1,13.3,0000.0,0002.79,0001.35,0000.94
2021-10-09 22:44:00,,0820.6,5.01,0.00,29.4,28.6,00.0,38.5,31.1,13.2,0000.0,0002.52,0001.36,0000.94
2021-10-09 22:45:00,,0820.7,4.98,0.00,29.4,28.6,00.0,38.5,31.1,13.3,0000.0,0002.22,0001.37,0000.95
2021-10-09 22:46:00,,0820.7,5.00,0.00,29.4,28.6,00.0,38.5,31.1,13.5,0000.0,0002.25,0001.39,0000.96
2021-10-09 22:47:00,,0820.6,5.00,0.00,29.4,28.6,00.0,38.5,31.2,13.5,0000.0,0002.38,0001.44,0000.97
2021-10-09 22:48:00,,0820.7,5.00,0.00,29.4,28.6,00.0,38.5,31.2,13.3,0000.0,0002.38,0001.43,0000.97
2021-10-09 22:49:00,,0820.7,5.00,0.00,29.4,28.6,00.0,38.5,31.2,13.5,0000.0,0002.33,0001.40,0000.97
2021-10-09 22:50:00,,0820.6,5.00,0.00,29.4,28.6,00.0,38.5,31.2,13.4,0000.0,0002.27,0001.39,0000.98
2021-10-09 22:51:00,,0820.6,5.00,0.00,29.4,28.6,00.0,38.5,31.1,13.2,0000.0,0002.87,0001.39,0000.97
2021-10-09 22:52:00,,0820.6,5.00,0.00,29.4,28.6,00.0,38.5,31.1,13.2,0000.0,0002.87,0001.39,0000.97
2021-10-09 22:53:00,,0820.7,5.01,0.00,29.4,28.6,00.0,38.6,31.1,13.7,0000.0,0002.89,0001.42,0000.97
2021-10-09 22:54:00,,0820.6,5.00,0.00,29.4,28.6,00.0,38.6,31.1,13.8,0000.0,0002.83,0001.42,0000.97
2021-10-09 22:55:00,,0820.6,5.00,0.00,29.4,28.5,00.0,38.6,31.1,13.3,0000.0,0002.80,0001.39,0000.98
2021-10-09 22:56:00,,0820.6,5.00,0.00,29.4,28.6,00.0,38.5,31.1,13.5,0000.0,0002.90,0001.40,0000.98
2021-10-09 22:57:00,,0820.6,5.00,0.00,29.4,28.5,00.0,38.6,31.1,13.4,0000.0,0003.03,0001.44,0000.98
2021-10-09 22:58:00,,0820.6,4.99,0.00,29.4,28.5,00.0,38.6,31.1,13.3,0000.0,0003.08,0001.46,0000.99
2021-10-09 22:59:00,,0820.5,5.00,0.00,29.4,28.5,00.0,38.6,31.1,13.2,0000.0,0003.26,0001.54,0001.00
